Gakona, AK

5:48 AM AKDT on August 27, 2016 (GMT -0800)
Gulkana

Weather History for PAGK - November, 2012

Change the Weather History Date:

Saturday, November 17, 2012

  Actual Average Record
Temperature  
Mean Temperature -3 °F -  
Max Temperature 1 °F 10 °F 46 °F (1964)
Min Temperature -11 °F -4 °F -42 °F (1969)
Degree Days  
Heating Degree Days 68    
Moisture  
Dew Point -5 °F    
Average Humidity 82    
Maximum Humidity 87    
Minimum Humidity 69    
Precipitation  
Precipitation 0.04 in - - ()
Snow  
Snow 0.00 in - - ()
Snow Depth 9.00 in    
Sea Level Pressure  
Sea Level Pressure 29.49 in    
Wind  
Wind Speed 0 mph (South)    
Max Wind Speed 4 mph    
Max Gust Speed -    
Visibility 5 miles    
Events Snow    
Averages and records for this station are not official NWS values.
T = Trace of Precipitation, MM = Missing Value Source: NWS Daily Summary

Daily Weather History Graph

Daily Weather History Graph

Search for Another Location

Airport or City:

Trip Planner

Search our weather history database for the weather conditions in past years. The results will help you decide how hot, cold, wet, or windy it might be!

Date:

Astronomy

Nov. 17, 2012 Rise Set
Actual Time 9:02 AM AKST 3:51 PM AKST
Civil Twilight 8:06 AM AKST 4:46 PM AKST
Nautical Twilight 7:10 AM AKST 5:42 PM AKST
Astronomical Twilight 6:17 AM AKST 6:35 PM AKST
Moon 12:50 PM AKST (11/17) 8:20 PM AKST (11/17)
Length of Visible Light 8h 39m
Length of Day
6h 48m
Waxing Crescent, 21% of the Moon is Illuminated
Nov 17
Waxing Crescent
Nov 20
First Quarter
Nov 28
Full
Dec 6
Last Quarter
Dec 12
New

Hourly Weather History & Observations

Time (AKST) Temp. Windchill Dew Point Humidity Pressure Visibility Wind Dir Wind Speed Gust Speed Precip Events Conditions
12:53 AM -2.0 °F - -6.0 °F 83% 29.73 in 10.0 mi Calm Calm - N/A   Overcast
1:53 AM -0.9 °F - -6.0 °F 79% 29.71 in 9.0 mi Calm Calm - 0.00 in   Overcast
3:53 AM -0.0 °F - -5.1 °F 79% 29.68 in 6.0 mi Calm Calm - 0.00 in Snow Light Snow
4:53 AM -0.0 °F - -5.1 °F 79% 29.65 in 9.0 mi Calm Calm - 0.00 in Snow Light Snow
5:23 AM -0.4 °F - -4.0 °F 85% 29.48 in 2.0 mi Calm Calm - 0.00 in Snow Light Snow
5:32 AM -0.4 °F - -4.0 °F 85% 29.48 in 1.8 mi Calm Calm - 0.00 in Snow Light Snow
5:42 AM -0.4 °F - -4.0 °F 85% 29.47 in 2.5 mi Calm Calm - 0.00 in Snow Light Snow
5:53 AM -0.0 °F - -4.0 °F 83% 29.64 in 2.5 mi Calm Calm - 0.00 in Snow Light Snow
6:03 AM -0.4 °F - -4.0 °F 85% 29.47 in 2.0 mi Calm Calm - 0.01 in Snow Light Snow
6:53 AM -0.9 °F - -4.0 °F 87% 29.61 in 2.0 mi Calm Calm - 0.01 in Snow Light Snow
7:53 AM -0.0 °F - -4.0 °F 83% 29.59 in 2.0 mi Calm Calm - 0.01 in Snow Light Snow
8:53 AM -0.0 °F - -4.0 °F 83% 29.58 in 4.0 mi Calm Calm - 0.01 in Snow Light Snow
9:24 AM -0.4 °F - -4.0 °F 85% 29.40 in 4.0 mi Calm Calm - 0.00 in Snow Light Snow
9:53 AM -0.0 °F -7.9 °F -4.0 °F 83% 29.56 in 3.0 mi NNE 3.5 mph - 0.01 in Snow Light Snow
10:53 AM 1.0 °F - -4.0 °F 79% 29.55 in 3.0 mi Calm Calm - 0.00 in Snow Light Snow
11:53 AM 1.0 °F -6.7 °F -4.0 °F 79% 29.53 in 3.0 mi NNW 3.5 mph - 0.01 in Snow Light Snow
12:53 PM 1.9 °F - -2.9 °F 80% 29.50 in 3.0 mi Calm Calm - 0.01 in Snow Light Snow
1:53 PM 1.9 °F - -2.9 °F 80% 29.48 in 3.0 mi Calm Calm - 0.01 in Snow Light Snow
2:15 PM 1.4 °F - -2.2 °F 85% 29.30 in 1.0 mi Calm Calm - 0.00 in Snow Light Snow
2:53 PM 1.9 °F - -2.0 °F 83% 29.46 in 1.5 mi Calm Calm - 0.01 in Snow Light Snow
3:27 PM 1.4 °F - -2.2 °F 85% 29.28 in 1.0 mi Calm Calm - 0.00 in Snow Light Snow
3:53 PM 1.9 °F - -2.0 °F 83% 29.44 in 2.0 mi Calm Calm - 0.01 in Snow Light Snow
4:21 PM 1.4 °F - -2.2 °F 85% 29.27 in 3.0 mi Calm Calm - 0.00 in   Overcast
4:53 PM 1.0 °F - -2.9 °F 83% 29.43 in 10.0 mi Calm Calm - 0.00 in   Overcast
5:53 PM -2.9 °F - -6.0 °F 87% 29.44 in 10.0 mi Calm Calm - N/A   Overcast
6:53 PM -5.1 °F - -9.0 °F 83% 29.43 in 10.0 mi Calm Calm - 0.00 in Snow Light Snow
7:53 PM -4.0 °F - -7.1 °F 87% 29.42 in 10.0 mi Calm Calm - 0.00 in   Overcast
8:53 PM -6.0 °F - -9.9 °F 83% 29.42 in 10.0 mi Calm Calm - N/A   Overcast
9:30 PM -7.6 °F - -11.2 °F 84% 29.23 in 10.0 mi Calm Calm - N/A   Overcast
9:53 PM -7.1 °F - -11.0 °F 83% 29.42 in 10.0 mi Calm Calm - N/A   Scattered Clouds
10:53 PM -7.1 °F - -11.0 °F 83% 29.41 in 10.0 mi Calm Calm - N/A   Clear
11:53 PM -11.0 °F - -15.0 °F 83% 29.42 in 10.0 mi Calm Calm - N/A   Clear